Weather History for Benson, United Kingdom

Change the Weather History Date:

Tuesday, December 11, 2012

  Actual Average Record
Temperature  
Mean Temperature 27 °F -  
Max Temperature 31 °F 44 °F 57 °F (2000)
Min Temperature 23 °F 35 °F 23 °F (2007)
Degree Days  
Heating Degree Days 38    
Moisture  
Dew Point 28 °F    
Average Humidity 97    
Maximum Humidity 100    
Minimum Humidity 93    
Precipitation  
Precipitation 0.00 in - - ()
Sea Level Pressure  
Sea Level Pressure 30.40 in    
Wind  
Wind Speed 3 mph ()    
Max Wind Speed 6 mph    
Max Gust Speed -    
Visibility 1.8 miles    
Events Fog , Rain    
Averages and records for this station are not official NWS values.
T = Trace of Precipitation, MM = Missing Value Source: Averaged Metar Reports

Daily Weather History Graph

Daily Weather History Graph

Search for Another Location

Airport:

Trip Planner

Search our weather history database for the weather conditions in past years. The results will help you decide how hot, cold, wet, or windy it might be!

Date:

Astronomy

Dec. 11, 2012 Rise Set
Actual Time 8:00 AM GMT 3:54 PM GMT
Civil Twilight 7:20 AM GMT 4:34 PM GMT
Nautical Twilight 6:37 AM GMT 5:17 PM GMT
Astronomical Twilight 5:56 AM GMT 5:58 PM GMT
Moon 5:29 AM GMT (12/11) 2:27 PM GMT (12/11)
Length of Visible Light 9h 14m
Length of Day
7h 53m
Waning Crescent, 5% of the Moon is Illuminated
Dec 11
Waning Crescent
Dec 13
New
Dec 20
First Quarter
Dec 28
Full
Jan 5
Last Quarter

Hourly Weather History & Observations

Time (GMT) Temp. Windchill Dew Point Humidity Pressure Visibility Wind Dir Wind Speed Gust Speed Precip Events Conditions
12:50 AM 24.8 °F 20.5 °F 24.8 °F 100% 30.39 in 5.0 mi West 3.5 mph - N/A   Partly Cloudy
1:50 AM 23.0 °F - 23.0 °F 100% 30.39 in - North 1.2 mph - N/A   Partly Cloudy
2:50 AM 29 °F - 28 °F 97% 30.42 in 7 mi North 2.3 mph - - Rain Light Freezing Rain
2:50 AM 28.4 °F - 28.4 °F 100% 30.39 in 6.2 mi North 2.3 mph - N/A   Overcast
3:50 AM 30.2 °F - 28.4 °F 93% 30.39 in 6.2 mi West 2.3 mph - N/A   Overcast
4:50 AM 30.2 °F - 30.2 °F 100% 30.39 in 6.2 mi Calm Calm - N/A   Overcast
5:50 AM 32 °F - 31 °F 94% 30.43 in 6 mi North 5.8 mph - -   Mist
5:50 AM 32.0 °F 26.4 °F 30.2 °F 93% 30.42 in 5.6 mi North 5.8 mph - N/A   Overcast
6:50 AM 32.0 °F 27.5 °F 30.2 °F 93% 30.42 in 5.0 mi NW 4.6 mph - N/A   Overcast
7:50 AM 32.0 °F 27.5 °F 30.2 °F 93% 30.42 in 2.2 mi North 4.6 mph - N/A   Overcast
8:50 AM 31 °F - 30 °F 94% 30.46 in 1 mi NNE 4.6 mph - -   Mist
8:50 AM 30.2 °F 25.4 °F 30.2 °F 100% 30.42 in 1.1 mi NNE 4.6 mph - N/A   Mostly Cloudy
9:50 AM 30.2 °F 24.3 °F 30.2 °F 100% 30.45 in 0.9 mi North 5.8 mph - N/A   Overcast
10:50 AM 30.2 °F 25.4 °F 30.2 °F 100% 30.45 in 0.6 mi North 4.6 mph - N/A Fog Patches of Fog
11:50 AM 31 °F - 30 °F 94% 30.46 in 1 mi NE 3.5 mph - - Fog Patches of Fog
11:50 AM 30.2 °F 26.7 °F 30.2 °F 100% 30.42 in 0.6 mi NE 3.5 mph - N/A Fog Patches of Fog
12:50 PM 30.2 °F 26.7 °F 30.2 °F 100% 30.42 in 0.4 mi North 3.5 mph - N/A Fog Light Freezing Fog
1:50 PM 30.2 °F 25.4 °F 30.2 °F 100% 30.42 in 0.4 mi North 4.6 mph - N/A Fog Light Freezing Fog
2:50 PM 30 °F - 29 °F 96% 30.43 in 0 mi NNE 4.6 mph - - Fog Fog
2:50 PM 30.2 °F 25.4 °F 30.2 °F 100% 30.39 in 0.2 mi NNE 4.6 mph - N/A Fog Light Freezing Fog
3:50 PM 28.4 °F - 28.4 °F 100% 30.39 in 0.1 mi North 2.3 mph - N/A Fog Light Freezing Fog
4:50 PM 28.4 °F 24.6 °F 28.4 °F 100% 30.39 in 0.1 mi North 3.5 mph - N/A Fog Light Freezing Fog
5:50 PM 28 °F - 27 °F 96% 30.42 in 0 mi NNE 3.5 mph - - Fog Heavy Fog
5:50 PM 28.4 °F 24.6 °F 26.6 °F 93% 30.39 in 0.1 mi NNE 3.5 mph - N/A Fog Light Freezing Fog
6:50 PM 26.6 °F - 26.6 °F 100% 30.36 in 0.1 mi NW 1.2 mph - N/A Fog Light Freezing Fog
7:50 PM 26.6 °F - 26.6 °F 100% 30.36 in 0.1 mi WNW 1.2 mph - N/A Fog Light Freezing Fog
8:50 PM 28 °F - 27 °F 94% 30.39 in 0 mi NE 2.3 mph - - Fog Heavy Fog
8:50 PM 28.4 °F - 26.6 °F 93% 30.36 in 0.1 mi NE 2.3 mph - N/A Fog Light Freezing Fog
9:50 PM 26.6 °F - 26.6 °F 100% 30.36 in 0.1 mi ENE 2.3 mph - N/A Fog Light Freezing Fog
10:50 PM 26.6 °F - 24.8 °F 93% 30.33 in 0.1 mi SSE 1.2 mph - N/A Fog Light Freezing Fog
11:50 PM 25 °F - 25 °F 99% 30.35 in 0 mi East 2.3 mph - - Fog Heavy Fog
11:50 PM 24.8 °F - 24.8 °F 100% 30.33 in 0.1 mi East 2.3 mph - N/A Fog Light Freezing Fog